Hourly Weather Roundup
Issued by NWS

Home | Current Version | Previous Version | Text Only | Print | Product List | Glossary On
Versions: 1 2 3 4 5 6 7 8 9 10 11 12 13 14 15 16 17 18 19 20 21 22 23 24 25 26 27 28 29 30 31 32 33 34 35 36 37 38 39 40 41 42 43 44 45 46 47 48 49 50
000
NZUS43 KILX 170210
HWRCRS

NWR Hourly Weather Roundup
National Weather Service Lincoln IL
900 PM CDT WED AUG 16 2017


CITY           SKY/WX    TMP DP  RH WIND       PRES   REMARKS
Champaign      CLOUDY    79  74  84 S14G22    29.88F HX  82
Lawrenceville  CLOUDY    79  75  87 S7        29.94R HX  83
Peoria         CLOUDY    77  74  90 SW14G23   29.86R
Springfield    CLOUDY    76  72  87 SW9       29.89R
$$


CITY           SKY/WX    TMP DP  RH WIND       PRES   REMARKS
Bloomington    CLOUDY    77  74  90 SW16      29.91R
Danville       CLOUDY    77  73  87 SE6       29.88F
Decatur        CLOUDY    75  71  87 SW7       29.90R
Effingham      CLOUDY    73  73  99 S5        29.92F
Flora          CLOUDY    73  72  94 S7        29.92F
Galesburg      MOCLDY    76  73  93 S8        29.83F
Jacksonville   CLOUDY    72  69  93 SW9       29.88S
Lacon          CLOUDY    78  74  89 S9        29.84R HX  80
La Salle       RAIN      76  72  86 S9        29.85S
Lincoln        CLOUDY    75  72  88 S3        29.89R
Litchfield     CLOUDY    72  71  98 SW7       29.92R

CITY           SKY/WX    TMP DP  RH WIND       PRES   REMARKS
Macomb         PTCLDY    76  70  82 S12G17    29.85F
Mattoon        LGT RAIN  73  72  96 S10       29.89F
Moline         PTCLDY    78  72  81 S8        29.79S HX  80
Olney            N/A     73  71  93 SE3       29.95F
Paris          CLOUDY    77  75  92 SE7       29.91F
Pontiac        CLOUDY    77  77  99 CALM      29.88R
Quincy         MOCLDY    73  68  84 S12       29.86S
Rantoul        CLOUDY    79  76  91 SE8       29.89S HX  83
Robinson       TSTM      75  72  90 W10G28    29.96R
Taylorville    DRIZZLE   73  72  98 W12G20    29.91R
Terre Haute    CLOUDY    79  73  82 SE7       29.92F HX  82
$$


CITY           SKY/WX    TMP DP  RH WIND       PRES   REMARKS
Burlington     CLOUDY    77  74  90 S15       29.81R
Chicago        LGT RAIN  78  73  84 SE9       29.88R HX  81
Des Moines     MOCLDY    77  66  68 SW13      29.75R
Evansville     PTCLDY    78  71  79 W3        29.95S HX  80
Indianapolis   MOCLDY    79  72  79 S9        29.94S HX  82
Kansas City    CLOUDY    75  72  90 SW5       29.84R
Milwaukee      LGT RAIN  73  71  93 E7        29.88S
St Louis       CLOUDY    72  70  93 S6        29.91R
$$





USA.gov is the U.S. government's official web portal to all federal, state and local government web resources and services.